sat.trackr.live / text

‹ back to catalog

IRIDE-MS2-HEO-2

NORAD 64569 · 2025-135AT

PAYLOAD ACTIVE UNKNOWN

§ Identity

Operator
Country
IT
Launch date
2025-06-23
Launch site
AFWTR
Launch vehicle
Mass (kg)
RCS (m²)

External: N2YO · Heavens-Above · Gunter

§ Orbital elements

Epoch: 2026-09-21T22:05:24.573120Z

Period
96.39 min
Inclination
97.7834°
Eccentricity
0.0002656
Mean motion
14.93946808 rev/d
Perigee alt
583.8 km
Apogee alt
587.5 km
Semi-major
6,963.8 km
B*
1.2141e-4
RAAN
18.2319°
Arg perigee
61.3899°
Mean anomaly
298.7588°
Rev number
6,832

§ Raw data

IRIDE-MS2-HEO-21 64569U 25135AT  26264.92042330  .00001235  00000+0  12141-3 0  99912 64569  97.7834  18.2319 0002656  61.3899 298.7588 14.93946808 68327

JSON: /api/v1/satellites/64569 · /tle

For live sub-satellite position, see the globe view (requires WebGL).

§ Visibility from observer

Set your observer location to see the next 7 days of passes ≥ 10°. The values pass through the URL so the page stays shareable.

No JS? Fill the form by hand. The geolocation button needs JavaScript.

§ Radio — SatNOGS DB

ModeDescriptionDownlinkUplink
FM Mode S - Transmitter 2.264 GHz

1 transmitter · refreshed weekly from db.satnogs.org